{"data":{"norad_id":59894,"epoch":"2026-05-25T02:23:30.170400Z","epoch_age_seconds":62969,"freshness":"FRESH","line1":"1 59894U 24100K   26145.09965475  .00001232  00000+0  54282-4 0  9997","line2":"2 59894  43.0042  46.8825 0000760 275.0891  84.9874 15.27571559112920","mean_motion":15.27571559,"eccentricity":7.6e-5,"inclination_deg":43.0042,"raan_deg":46.8825,"arg_perigee_deg":275.0891,"mean_anomaly_deg":84.9874,"bstar":5.4282e-5,"rev_number":11292,"period_min":94.267269609463,"perigee_km":482.55291948244,"apogee_km":483.59582361091,"semimajor_km":6861.2113715467,"source":"CELESTRAK","updated_at":"2026-05-25T13:38:19.117783Z"}}